FW1401 Weather Reports


time (UTC)temp
C
wind
direction
speed
KPH
gust
KPH
rain 1hr
cm
rain 24hr
cm
rain mn
cm
humidity
%
barometer
mb
20260507113039 -1 301 0.0 4.8 0.00 0.00 0.00 76 1016.1
20260507111545 -1 290 1.6 6.4 0.00 0.00 0.00 76 1016.0
20260507110035 -2 279 1.6 8.0 0.00 0.00 0.00 76 1016.0
20260507104532 -1 304 0.0 4.8 0.00 0.00 0.00 75 1016.0
20260507103032 -1 299 1.6 6.4 0.00 0.00 0.00 74 1016.0
20260507101528 -1 310 0.0 8.0 0.00 0.00 0.00 73 1016.1
20260507100026 -1 287 1.6 6.4 0.00 0.00 0.00 73 1016.1
20260507094525 -1 295 0.0 4.8 0.00 0.00 0.00 73 1016.3
20260507093021 -1 298 0.0 4.8 0.00 0.00 0.00 72 1016.3
20260507091518 0 294 0.0 4.8 0.00 0.00 0.00 71 1016.3
20260507090016 0 298 0.0 8.0 0.00 0.00 0.00 70 1016.4
20260507084517 0 296 3.2 8.0 0.00 0.00 0.00 70 1016.3
20260507083020 0 288 0.0 8.0 0.00 0.00 0.00 69 1016.3
20260507081518 0 272 1.6 6.4 0.00 0.00 0.00 68 1016.4
20260507080013 0 296 1.6 9.7 0.00 0.00 0.00 67 1016.4
20260507074510 0 291 3.2 9.7 0.00 0.00 0.00 67 1016.3
20260507073006 0 295 0.0 1.6 0.00 0.00 0.00 68 1016.4
20260507071503 0 300 0.0 4.8 0.00 0.00 0.00 67 1016.4
20260507070000 0 292 1.6 6.4 0.00 0.00 0.00 66 1016.5
20260507064613 1 283 1.6 4.8 0.00 0.00 0.00 65 1016.5
20260507063057 1 296 3.2 9.7 0.00 0.00 0.00 64 1016.7
20260507061555 1 295 3.2 9.7 0.00 0.00 0.00 64 1016.7
20260507060058 1 281 1.6 11.3 0.00 0.00 0.00 63 1016.8
20260507054600 1 259 3.2 12.9 0.00 0.00 0.00 62 1016.9
20260507053047 1 270 3.2 9.7 0.00 0.00 0.00 62 1016.9
20260507051543 2 254 4.8 11.3 0.00 0.00 0.00 60 1017.0
20260507050042 2 290 1.6 8.0 0.00 0.00 0.00 59 1017.1
20260507044539 2 312 1.6 6.4 0.00 0.00 0.00 60 1017.3
20260507043038 2 294 0.0 4.8 0.00 0.00 0.00 61 1017.3
20260507041549 2 300 0.0 3.2 0.00 0.00 0.00 60 1017.5
20260507040034 2 296 0.0 4.8 0.00 0.00 0.00 59 1017.7
20260507034536 3 289 0.0 3.2 0.00 0.00 0.00 59 1017.8
20260507033035 3 292 0.0 6.4 0.00 0.00 0.00 58 1017.9
20260507031531 3 293 0.0 3.2 0.00 0.00 0.00 58 1018.1
20260507030030 3 293 0.0 1.6 0.00 0.00 0.00 57 1018.1
20260507024529 3 293 0.0 3.2 0.00 0.00 0.00 58 1018.2
20260507023030 3 299 0.0 1.6 0.00 0.00 0.00 57 1018.2
20260507021528 4 298 0.0 1.6 0.00 0.00 0.00 55 1018.3
20260507020029 5 303 0.0 1.6 0.00 0.00 0.00 53 1018.2
20260507014545 5 304 0.0 1.6 0.00 0.00 0.00 52 1018.3
20260507013040 6 304 0.0 1.6 0.00 0.00 0.00 50 1018.2
20260507011534 6 304 0.0 3.2 0.00 0.00 0.00 48 1018.3
20260507010024 6 308 0.0 3.2 0.00 0.00 0.00 47 1018.4
20260507004523 7 321 0.0 4.8 0.00 0.00 0.00 47 1018.5
20260507003022 7 301 1.6 6.4 0.00 0.00 0.00 46 1018.5
20260507001521 7 335 1.6 11.3 0.00 0.00 0.00 46 1018.7
20260507000027 7 334 1.6 8.0 0.00 0.00 0.00 46 1018.8
20260506234519 7 336 1.6 12.9 0.00 0.00 0.00 47 1018.9
20260506233022 7 286 1.6 8.0 0.00 0.00 0.00 47 1019.0
20260506231516 7 287 3.2 11.3 0.00 0.00 0.00 48 1019.2
20260506230015 6 313 4.8 11.3 0.00 0.00 0.00 48 1019.4
20260506224513 7 323 3.2 14.5 0.00 0.00 0.00 49 1019.4
20260506223012 7 315 0.0 11.3 0.00 0.00 0.00 49 1019.5
20260506221510 7 318 1.6 14.5 0.00 0.00 0.00 49 1019.6
20260506220007 6 318 4.8 14.5 0.00 0.00 0.00 50 1019.7
20260506214505 6 313 3.2 12.9 0.00 0.00 0.00 51 1019.8
20260506213003 6 313 4.8 12.9 0.00 0.00 0.00 51 1020.0
20260506211501 6 324 3.2 14.5 0.00 0.00 0.00 51 1020.1
20260506210126 6 323 3.2 8.0 0.00 0.00 0.00 51 1020.1
20260506204559 6 311 3.2 16.1 0.00 0.00 0.00 52 1020.2
20260506203103 6 318 3.2 16.1 0.00 0.00 0.00 53 1020.4
20260506201559 6 338 3.2 14.5 0.00 0.00 0.00 53 1020.5
20260506200140 6 317 6.4 14.5 0.00 0.00 0.00 53 1020.5
20260506194607 6 346 3.2 9.7 0.00 0.00 0.00 53 1020.6
20260506193057 5 309 0.0 11.3 0.00 0.00 0.00 53 1020.7
20260506191556 5 308 0.0 6.4 0.00 0.00 0.00 53 1020.9
20260506190056 5 334 3.2 11.3 0.00 0.00 0.00 54 1020.8
20260506184557 5 310 1.6 12.9 0.00 0.00 0.00 56 1021.0
20260506183055 5 314 3.2 16.1 0.00 0.00 0.00 55 1021.1
20260506181554 5 334 4.8 14.5 0.00 0.00 0.00 55 1021.2
20260506180103 5 332 1.6 11.3 0.00 0.00 0.00 54 1021.2
20260506174553 5 323 9.7 20.9 0.00 0.00 0.00 53 1021.3
20260506173109 5 332 1.6 11.3 0.00 0.00 0.00 55 1021.3
20260506171559 5 323 0.0 11.3 0.00 0.00 0.00 54 1021.5
20260506170051 5 344 4.8 14.5 0.00 0.00 0.00 53 1021.5
20260506164551 5 312 1.6 14.5 0.00 0.00 0.00 54 1021.6
20260506163051 5 346 8.0 22.5 0.00 0.00 0.00 53 1021.7
20260506161555 5 338 1.6 22.5 0.00 0.00 0.00 53 1021.8
20260506160053 6 310 3.2 16.1 0.00 0.00 0.00 53 1021.7
20260506154544 4 322 1.6 12.9 0.00 0.00 0.00 57 1021.9
20260506153045 4 322 4.8 17.7 0.00 0.00 0.00 57 1021.9
20260506151543 4 316 9.7 24.1 0.00 0.00 0.00 56 1022.0
20260506150040 4 327 4.8 14.5 0.00 0.00 0.00 58 1022.0
20260506144538 3 344 9.7 22.5 0.00 0.00 0.00 57 1022.1
20260506143037 3 317 3.2 9.7 0.00 0.00 0.00 58 1022.1
20260506141534 3 334 8.0 20.9 0.00 0.00 0.00 59 1022.1
20260506140035 3 310 3.2 17.7 0.00 0.00 0.00 61 1022.2
20260506134604 3 334 9.7 17.7 0.00 0.00 0.00 61 1022.2
20260506133028 2 340 4.8 12.9 0.00 0.00 0.00 64 1022.2
20260506131528 2 323 3.2 12.9 0.00 0.00 0.00 66 1022.1
20260506130025 2 317 1.6 8.0 0.00 0.00 0.00 68 1022.0
20260506124523 1 315 0.0 3.2 0.00 0.00 0.00 70 1022.1
20260506123022 1 330 0.0 4.8 0.00 0.00 0.00 70 1022.0
20260506121521 1 316 0.0 1.6 0.00 0.00 0.00 70 1021.9
20260506120019 1 331 0.0 3.2 0.00 0.00 0.00 70 1021.7
20260506114526 1 336 0.0 4.8 0.00 0.00 0.00 70 1021.7